Location: *
(47.8814°S, 171.1295°W)
Time: 12:45:35
(UTC+00:00)

Daily predictions for brighter satellites

Satellite Brightness Start Highest point End
(mag) Time Altitude Azimuth Time Altitude Azimuth Time Altitude Azimuth
Cosmos 2263 Rocket 4.4 15:07:39 20° SE 15:07:52 20° SE 15:11:59 10° E
CZ-4C R/B 3.8 15:35:02 33° S 15:35:02 33° S 15:38:48 10° SE
USA 229 DEB 4.0 15:35:51 60° ENE 15:35:51 60° ENE 15:41:14 10° NE
USA 229 4.0 15:35:56 61° ENE 15:35:56 61° ENE 15:41:21 10° NE
Cosmos 1980 Rocket 3.8 15:32:43 24° NE 15:34:49 30° ENE 15:39:40 10° SE
BREEZE-M R/B 4.4 15:38:52 73° SE 15:38:52 73° SE 15:49:15 10° E
Okean O Rocket 3.7 15:34:31 10° ENE 15:37:18 25° E 15:37:18 25° E
NOSS 3-1 (A) 3.7 15:47:29 61° E 15:47:29 61° E 15:52:26 10° NE
Cosmos 2278 4.4 15:56:07 42° NNE 15:57:29 51° ENE 16:03:01 10° SE
USA 234 3.6 15:55:15 10° E 16:01:41 57° SSE 16:02:52 51° SSW
Cosmos 1697 Rocket 3.0 16:02:53 61° SE 16:02:53 61° SE 16:07:33 10° SSE
ATLAS 2AS CENTAUR R/B 4.2 16:04:40 19° S 16:05:00 19° S 16:09:34 10° SE
SMAP 4.4 16:00:47 10° NE 16:05:06 38° ESE 16:07:02 26° SSE
Cosmos 1092 Rocket 4.2 15:59:15 10° N 16:05:26 68° E 16:11:37 10° SSE
CZ-4B R/B 3.6 16:04:27 10° NNE 16:10:00 66° ESE 16:12:46 31° S
Lacrosse 5 rocket 3.4 16:16:13 20° SE 16:16:13 20° SE 16:17:44 10° SE
Cosmos 1953 3.6 16:14:22 40° E 16:14:22 40° E 16:17:49 10° NNE
Radarsat Rocket 4.3 16:07:56 10° NNE 16:15:11 80° ESE 16:20:01 20° SSW
Cosmos 1937 Rocket 3.6 16:15:37 70° SE 16:15:51 71° ESE 16:21:02 10° NNE
Nadezhda 4 Rocket 4.3 16:19:04 50° SSW 16:19:04 50° SSW 16:23:49 10° S
Cosmos 1025 Rocket 3.7 16:23:13 51° SE 16:23:13 51° SE 16:26:44 10° SSE
YAOGAN 6 4.1 16:19:40 10° NE 16:22:43 36° E 16:22:43 36° E
SJ 16-02 3.7 16:30:57 13° N 16:30:57 13° N 16:31:27 10° N
NOAA 6 4.2 16:26:26 10° N 16:30:45 58° NNW 16:30:45 58° NNW
Cosmos 2227 4.4 16:30:35 34° SSW 16:33:04 68° ESE 16:38:43 10° NE
Cosmos 2360 4.1 16:33:53 57° NW 16:35:02 76° WSW 16:40:50 10° SSE
Meteor 1-21 4.2 16:35:56 60° WNW 16:36:27 63° WSW 16:42:12 10° S
ATLAS CENTAUR R/B 3.8 16:35:12 16° S 16:37:01 20° SSE 16:40:34 10° ESE
Cosmos 2322 Rocket 4.4 16:35:10 10° NNE 16:39:46 25° ENE 16:44:23 10° SE
Cosmos 1726 3.0 16:43:50 40° N 16:43:50 40° N 16:46:21 10° N
Cosmos 1536 Rocket 3.5 16:39:04 10° N 16:43:26 84° E 16:47:53 10° S
Cosmos 1428 Rocket 4.5 16:39:36 10° N 16:45:57 88° WSW 16:52:24 10° S
NOSS 2-3 (E) 4.5 16:48:22 44° WSW 16:49:59 56° WNW 16:55:17 10° NNE
Cosmos 1674 3.9 16:46:32 10° NNE 16:50:07 42° E 16:53:46 10° SSE
Cosmos 2263 Rocket 2.2 16:49:23 27° SSW 16:52:42 83° ESE 16:58:27 10° NNE
Cosmos 1553 Rocket 4.1 16:46:40 10° S 16:53:13 82° E 16:59:36 10° N
Cosmos 1627 Rocket 4.4 16:47:25 10° NNW 16:53:38 71° W 17:00:02 10° S
Helios 1A Rocket 3.6 16:50:12 10° NNE 16:54:13 55° ESE 16:57:51 13° S
Envisat 2.9 16:52:03 10° N 16:57:10 73° WNW 17:01:07 18° SSW
Cosmos 2298 Rocket 4.5 16:53:44 15° SSW 16:58:10 61° ESE 17:03:26 10° NE
NOAA 12 4.0 16:54:10 10° NNE 16:59:27 88° WNW 17:04:48 10° SSW
Cosmos 1461 3.1 17:03:00 45° NW 17:03:00 45° NW 17:06:21 10° NNE
In-Cosmos 22 4.0 16:58:20 10° N 17:03:52 87° W 17:09:20 10° S
NOSS 3-1 (C) 4.3 17:06:25 26° WNW 17:06:25 26° WNW 17:10:30 10° NNW
S3M 4.1 17:00:16 10° S 17:06:30 76° E 17:12:39 10° NNE
Meteor 2-10 4.2 17:06:37 31° SW 17:08:35 46° W 17:13:27 10° NNW
Cosmos 2285 Rocket 4.1 17:02:16 11° SSW 17:08:37 87° ESE 17:15:06 10° NNE
USA 267 3.3 17:02:02 10° SE 17:08:42 88° NNE 17:14:37 14° NW
ATLAS 5 CENTAUR R/B 3.9 17:02:25 10° N 17:09:05 43° ENE 17:15:19 10° SE
Cosmos 1437 3.2 17:06:32 10° N 17:09:32 57° E 17:12:34 10° SSE
Cosmos 2208 Rocket 4.0 17:05:29 10° NNW 17:10:42 88° ENE 17:16:00 10° SSE
Cosmos 1814 Rocket 4.1 17:07:41 10° NNW 17:13:00 86° ENE 17:18:27 10° SSE
Okean O Rocket 2.2 17:10:26 10° NNW 17:14:35 36° W 17:14:45 36° W
H-2A R/B 4.4 17:12:08 10° ENE 17:15:37 19° ESE 17:19:10 10° SSE
Cosmos 1980 Rocket 2.3 17:14:37 18° NW 17:18:34 49° SW 17:24:05 10° SSE
Cosmos 1763 Rocket 3.8 17:15:53 23° WNW 17:18:43 42° WSW 17:23:47 10° SSE
CORIOLIS 4.2 17:14:19 10° N 17:19:42 60° WNW 17:25:08 10° SSW
Cosmos 2369 4.4 17:20:46 28° WSW 17:22:11 32° SW 17:27:19 10° SSE
ARGOS Delta rocket 3.8 17:17:20 10° N 17:22:18 74° WNW 17:27:05 10° SSW
CZ-4C R/B 3.9 17:20:13 19° SW 17:22:34 22° SSW 17:27:20 10° SE
Cosmos 1726 Rocket 3.8 17:21:12 10° S 17:25:37 69° E 17:29:56 10° NNE
Cosmos 1844 Rocket 3.8 17:23:54 10° SSW 17:29:21 41° SE 17:34:44 10° ENE
Feng Yun 1-1 Rocket 4.2 17:26:49 10° N 17:32:17 64° WNW 17:37:58 10° SSW
PSLV R/B 3.9 17:30:50 10° SSE 17:35:03 81° WSW 17:39:15 10° NNW
KORONAS-FOTON 3.8 17:32:27 10° NNW 17:36:15 60° WSW 17:40:08 10° S
NOSS 3-1 (A) 4.3 17:34:58 22° W 17:37:02 26° WNW 17:41:32 10° NNW
Aureole 3 Rocket 3.7 17:36:46 26° WSW 17:37:21 27° W 17:41:09 10° NNW
Cosmos 2026 Rocket 4.5 17:32:16 10° NW 17:37:55 37° WSW 17:43:43 10° S
Cosmos 1939 Rocket 3.0 17:36:17 10° NNE 17:40:22 80° ESE 17:44:35 10° S
Cosmos 1570 Rocket 4.3 17:36:18 10° NW 17:41:29 47° WSW 17:46:44 10° SSE
Cosmos 540 Rocket 3.6 17:36:32 10° NW 17:41:36 50° WSW 17:46:43 10° SSE
Cosmos 2278 4.4 17:38:08 16° WNW 17:41:53 32° SW 17:47:00 10° SSE
Cosmos 1689 Rocket 2.8 17:39:40 10° S 17:42:28 32° WSW 17:45:14 10° NW
SMAP 3.9 17:38:27 10° NNW 17:42:31 29° W 17:45:30 16° SW
SL-16 R/B 2.2 17:37:32 10° NNW 17:43:15 87° ENE 17:49:01 10° SSE
CZ-4 R/B 1.7 17:39:24 10° NNE 17:43:38 74° ESE 17:47:56 10° S
USA 234 3.4 17:38:08 10° NE 17:44:40 64° NW 17:50:12 15° WSW
FengYun 1-2 T 4.3 17:39:11 10° N 17:44:40 57° W 17:50:19 10° SSW
Cosmos 1626 2.4 17:42:29 10° N 17:46:14 74° E 17:50:03 10° SSE
Cosmos 1697 Rocket 3.9 17:44:40 19° WSW 17:46:32 22° SW 17:50:56 10° S
Cosmos 841 Rocket 3.8 17:42:40 10° NW 17:47:43 44° WSW 17:52:52 10° SSE
Cosmos 2228 3.1 17:44:51 10° SSW 17:49:07 54° W 17:53:18 10° N
Okean-O 2.6 17:44:47 10° N 17:49:15 75° WNW 17:53:48 10° SSW
Cosmos 372 Rocket 4.4 17:45:25 13° SW 17:49:36 40° WNW 17:54:22 10° N
Cosmos 1953 3.8 17:50:07 18° W 17:50:07 18° W 17:52:52 10° NW
Cosmos 2278 Rocket 4.4 17:46:07 10° S 17:50:05 19° SE 17:54:02 10° E
CZ-4B R/B 4.4 17:46:47 10° NW 17:51:02 22° W 17:54:39 13° SW
SL-14 R/B 3.4 17:48:31 10° N 17:52:27 81° E 17:56:26 10° SSE
Orbus 7S? 3.7 17:50:07 10° NW 17:53:22 87° NE 18:00:16 10° SE
Lacrosse 5 rocket 2.8 17:51:51 16° SW 17:53:55 22° S 17:57:15 10° SE
CZ-2D R/B 3.3 17:51:26 10° NNE 17:55:22 85° WNW 17:59:22 10° SSW
Cosmos 1908 4.0 17:52:24 11° SSW 17:55:35 31° W 17:59:01 10° NNW
YAOGAN 6 4.1 17:54:10 10° NW 17:56:38 17° W 17:57:05 17° W
Cosmos 2150 Rocket 4.3 17:51:29 10° SSW 17:56:46 51° WNW 18:01:54 10° N
Cosmos 2098 Rocket 4.0 17:51:34 10° N 17:57:17 85° W 18:04:22 10° S
Cosmos 1125 Rocket 3.5 17:52:03 10° SSW 17:57:23 76° WNW 18:02:38 10° NNE
Meteor 2-19 Rocket 4.5 17:51:49 10° NNW 17:57:57 63° WSW 18:04:11 10° S
ATLAS 2AS CENTAUR R/B 4.0 17:52:30 10° SSW 17:58:02 29° SSE 18:03:53 10° E
Cosmos 1300 2.7 17:57:00 10° S 18:00:55 82° W 18:04:47 10° N
SL-24 R/B 4.1 18:01:58 10° NNE 18:06:18 83° WNW 18:10:55 10° SSW
COSMO-SKYMED 1 2.7 18:03:32 10° S 18:07:53 54° WSW 18:12:10 10° NNW
Meteor 1-24 Rocket 3.6 18:02:32 10° NNW 18:07:55 79° W 18:13:20 10° S
ASTEX 1 4.0 18:03:26 10° NNW 18:07:55 34° W 18:12:28 10° SSW
Cosmos 1818 3.6 18:04:32 10° NW 18:09:58 88° SW 18:15:27 10° SE
ADEOS Rocket 3.0 18:04:46 10° S 18:10:04 46° WSW 18:15:23 10° NW
Cosmos 1892 Rocket 3.6 18:06:02 10° NNW 18:10:30 62° WSW 18:14:59 10° S
SL-24 R/B - RUBIN 2 4.3 18:09:28 10° NNW 18:14:09 59° NE 18:18:28 10° SE
Cosmos 1455 4.2 18:11:04 10° S 18:14:28 29° ESE 18:17:49 10° NE
Cosmos 1655 Rocket 4.3 18:08:39 10° NW 18:14:36 43° WSW 18:20:36 10° S
ATLAS CENTAUR R/B 2.0 18:11:55 10° SW 18:16:47 72° SE 18:21:39 10° NE
YAOGAN 1 2.7 18:15:37 10° N 18:19:55 58° W 18:24:18 10° SSW
Cosmos 1356 Rocket 3.8 18:17:22 10° SSW 18:21:20 42° W 18:25:18 10° NNW
Cosmos 2266 Rocket 4.2 18:15:20 10° NNW 18:21:27 50° WSW 18:27:32 10° S
Cosmos 1626 Rocket 4.1 18:17:27 10° N 18:21:46 63° E 18:26:08 10° SSE
Meteor 2-5 Rocket 3.9 18:17:54 10° NNW 18:23:18 47° WSW 18:28:43 10° S
Cosmos 2322 Rocket 2.3 18:17:44 10° NW 18:23:25 59° WSW 18:29:07 10° SSE
Cosmos 1674 4.2 18:23:21 10° WNW 18:25:52 17° WSW 18:28:26 10° SSW
USA 186 3.3 18:24:38 10° NE 18:26:56 28° ESE 18:29:25 10° S
Cosmos 2058 Rocket 3.5 18:23:48 10° SSW 18:28:03 43° W 18:32:16 10° NNW
Cosmos 2315 Rocket 4.3 18:29:29 10° SSW 18:35:31 48° W 18:41:28 10° NNW
Cosmos 2263 Rocket 3.7 18:32:17 10° WSW 18:35:53 17° W 18:39:28 10° NW
